SCX606 KTOL-KAFW

Flight info

Callsign SCX606
Flight time 2h 19m
Altitude 40000
Route ILLIE TWERP NATTY FWA TILMN FAM FSM RRNET TRUUK3
Aircraft B738/M-SDE2E3FGHIRWXY/LB1

Departure

Time 2026-04-26 17:12
Airport Eugene F. Kranz Toledo Express Airport (KTOL)

Arrival

Time 2026-04-26 19:31
Airport Perot Field/Fort Worth Alliance Airport (KAFW)
Time Latitude Longitude Altitude Speed Heading
2026-04-26 16:45 41.59008 -83.81160 682 ft 0 kts 336°
2026-04-26 17:06 41.58994 -83.81152 679 ft 8 kts 332°
2026-04-26 17:06 41.58980 -83.81141 679 ft 1 kts 299°
2026-04-26 17:06 41.58975 -83.81127 679 ft 1 kts 265°
2026-04-26 17:06 41.58975 -83.81130 680 ft 0 kts 266°
2026-04-26 17:07 41.58968 -83.81147 682 ft 7 kts 243°
2026-04-26 17:07 41.58915 -83.81237 679 ft 17 kts 221°
2026-04-26 17:07 41.58847 -83.81402 679 ft 22 kts 248°
2026-04-26 17:08 41.58788 -83.81585 682 ft 21 kts 246°
2026-04-26 17:08 41.58732 -83.81764 683 ft 20 kts 248°
2026-04-26 17:08 41.58679 -83.81937 686 ft 20 kts 248°
2026-04-26 17:08 41.58625 -83.82104 685 ft 19 kts 246°
2026-04-26 17:09 41.58573 -83.82265 685 ft 19 kts 249°
2026-04-26 17:09 41.58557 -83.82319 683 ft 18 kts 248°
2026-04-26 17:09 41.58468 -83.82567 686 ft 17 kts 225°
2026-04-26 17:09 41.58385 -83.82679 687 ft 17 kts 238°
2026-04-26 17:10 41.58339 -83.82819 689 ft 16 kts 247°
2026-04-26 17:10 41.58296 -83.82954 687 ft 15 kts 247°
2026-04-26 17:10 41.58255 -83.83075 687 ft 9 kts 232°
2026-04-26 17:10 41.58197 -83.83102 688 ft 9 kts 166°
2026-04-26 17:11 41.58157 -83.83041 691 ft 9 kts 100°
2026-04-26 17:11 41.58173 -83.82958 685 ft 14 kts 66°
2026-04-26 17:11 41.58307 -83.82536 683 ft 90 kts 67°
2026-04-26 17:11 41.58649 -83.81453 681 ft 160 kts 67°
2026-04-26 17:12 41.59589 -83.78457 2666 ft 169 kts 65°
2026-04-26 17:12 41.60034 -83.76929 3373 ft 190 kts 65°
2026-04-26 17:13 41.61160 -83.73280 3973 ft 230 kts 65°
2026-04-26 17:13 41.61772 -83.71264 4548 ft 237 kts 65°
2026-04-26 17:13 41.63134 -83.66749 5310 ft 279 kts 65°
2026-04-26 17:14 41.63618 -83.65172 6005 ft 274 kts 65°
2026-04-26 17:14 41.65025 -83.60453 7829 ft 275 kts 66°
2026-04-26 17:14 41.65653 -83.58040 8665 ft 280 kts 76°
2026-04-26 17:15 41.65117 -83.52797 10187 ft 297 kts 115°
2026-04-26 17:15 41.63885 -83.50473 10531 ft 321 kts 132°
2026-04-26 17:15 41.62039 -83.48597 10709 ft 348 kts 148°
2026-04-26 17:16 41.59837 -83.47061 11101 ft 363 kts 152°
2026-04-26 17:16 41.57544 -83.45568 11688 ft 370 kts 152°
2026-04-26 17:16 41.55202 -83.44062 12383 ft 374 kts 153°
2026-04-26 17:16 41.52847 -83.42558 13070 ft 378 kts 153°
2026-04-26 17:17 41.50391 -83.41231 13720 ft 385 kts 164°
2026-04-26 17:17 41.47720 -83.40752 14354 ft 390 kts 180°
2026-04-26 17:17 41.45030 -83.41228 15036 ft 392 kts 196°
2026-04-26 17:17 41.42556 -83.42705 15713 ft 391 kts 216°
2026-04-26 17:18 41.40618 -83.45208 16414 ft 388 kts 235°
2026-04-26 17:18 41.39350 -83.48363 17060 ft 387 kts 253°
2026-04-26 17:18 41.38547 -83.51790 17695 ft 389 kts 256°
2026-04-26 17:18 41.37803 -83.55269 18309 ft 392 kts 256°
2026-04-26 17:19 41.36321 -83.62286 19504 ft 394 kts 256°
2026-04-26 17:19 41.35562 -83.65799 20084 ft 395 kts 255°
2026-04-26 17:19 41.34790 -83.69321 20611 ft 398 kts 255°
2026-04-26 17:20 41.34016 -83.72814 21139 ft 400 kts 255°
2026-04-26 17:20 41.33481 -83.75219 21514 ft 401 kts 255°
2026-04-26 17:20 41.32427 -83.79933 22211 ft 403 kts 255°
2026-04-26 17:20 41.31623 -83.83519 22717 ft 405 kts 254°
2026-04-26 17:21 41.30811 -83.87134 23211 ft 408 kts 254°
2026-04-26 17:21 41.29996 -83.90758 23687 ft 411 kts 254°
2026-04-26 17:21 41.29174 -83.94407 24091 ft 413 kts 254°
2026-04-26 17:21 41.28350 -83.98063 24511 ft 414 kts 254°
2026-04-26 17:22 41.27519 -84.01741 24929 ft 415 kts 254°
2026-04-26 17:22 41.26686 -84.05424 25347 ft 416 kts 254°
2026-04-26 17:22 41.25851 -84.09111 25744 ft 418 kts 253°
2026-04-26 17:22 41.25010 -84.12814 26129 ft 419 kts 253°
2026-04-26 17:23 41.24133 -84.16511 26493 ft 421 kts 252°
2026-04-26 17:23 41.23205 -84.20204 26836 ft 423 kts 251°
2026-04-26 17:23 41.22267 -84.23862 27197 ft 424 kts 251°
2026-04-26 17:23 41.21313 -84.27577 27561 ft 425 kts 251°
2026-04-26 17:24 41.20361 -84.31302 27893 ft 427 kts 251°
2026-04-26 17:24 41.19409 -84.35043 28262 ft 428 kts 252°
2026-04-26 17:24 41.18449 -84.38823 28790 ft 424 kts 252°
2026-04-26 17:24 41.17523 -84.42471 29375 ft 420 kts 252°
2026-04-26 17:25 41.16591 -84.46139 29879 ft 418 kts 252°
2026-04-26 17:25 41.15661 -84.49790 30294 ft 417 kts 252°
2026-04-26 17:25 41.14731 -84.53438 30615 ft 417 kts 252°
2026-04-26 17:25 41.13802 -84.57085 30931 ft 417 kts 252°
2026-04-26 17:26 41.12872 -84.60738 31242 ft 417 kts 252°
2026-04-26 17:26 41.11945 -84.64379 31556 ft 417 kts 252°
2026-04-26 17:26 41.11016 -84.68021 31891 ft 416 kts 252°
2026-04-26 17:26 41.10088 -84.71652 32217 ft 416 kts 252°
2026-04-26 17:27 41.09157 -84.75289 32518 ft 416 kts 253°
2026-04-26 17:27 41.08226 -84.78923 32825 ft 415 kts 253°
2026-04-26 17:27 41.07292 -84.82561 33157 ft 415 kts 253°
2026-04-26 17:27 41.06378 -84.86122 33491 ft 413 kts 253°
2026-04-26 17:28 41.05451 -84.89722 33851 ft 412 kts 253°
2026-04-26 17:28 41.04526 -84.93309 34168 ft 411 kts 253°
2026-04-26 17:28 41.02655 -85.00533 34182 ft 416 kts 253°
2026-04-26 17:29 41.01080 -85.06593 34173 ft 413 kts 253°
2026-04-26 17:29 40.98922 -85.14880 34183 ft 409 kts 253°
2026-04-26 17:30 40.96456 -85.21676 34173 ft 414 kts 238°
2026-04-26 17:30 40.93089 -85.27877 34185 ft 414 kts 237°
2026-04-26 17:31 40.89696 -85.34053 34172 ft 415 kts 237°
2026-04-26 17:31 40.86319 -85.40240 34175 ft 415 kts 238°
2026-04-26 17:32 40.82971 -85.46400 34175 ft 416 kts 238°
2026-04-26 17:32 40.79599 -85.52605 34172 ft 416 kts 238°
2026-04-26 17:33 40.76221 -85.58810 34172 ft 417 kts 238°
2026-04-26 17:34 40.71148 -85.68103 34163 ft 417 kts 238°
2026-04-26 17:34 40.67749 -85.74314 34164 ft 417 kts 237°
2026-04-26 17:35 40.64349 -85.80514 33958 ft 417 kts 237°
2026-04-26 17:35 40.60945 -85.86709 33915 ft 417 kts 237°
2026-04-26 17:36 40.57545 -85.92885 33879 ft 417 kts 237°
2026-04-26 17:36 40.55843 -85.95972 34157 ft 417 kts 237°
2026-04-26 17:36 40.54134 -85.99069 34151 ft 416 kts 237°
2026-04-26 17:37 40.50731 -86.05225 34149 ft 416 kts 237°
2026-04-26 17:37 40.47328 -86.11370 34159 ft 416 kts 237°
2026-04-26 17:38 40.42244 -86.20526 34074 ft 415 kts 238°
2026-04-26 17:38 40.38844 -86.26636 34134 ft 415 kts 238°
2026-04-26 17:39 40.35425 -86.32770 34113 ft 417 kts 238°
2026-04-26 17:39 40.31989 -86.38921 34110 ft 419 kts 238°
2026-04-26 17:40 40.29116 -86.44054 34109 ft 420 kts 238°
2026-04-26 17:40 40.25086 -86.51240 34116 ft 422 kts 238°
2026-04-26 17:41 40.21596 -86.57448 34115 ft 423 kts 238°
2026-04-26 17:41 40.18104 -86.63649 34109 ft 423 kts 237°
2026-04-26 17:42 40.14616 -86.69830 34099 ft 422 kts 237°
2026-04-26 17:42 40.11131 -86.75992 34106 ft 421 kts 237°
2026-04-26 17:43 40.07654 -86.82130 34109 ft 419 kts 237°
2026-04-26 17:43 40.04191 -86.88230 34104 ft 417 kts 237°
2026-04-26 17:44 40.00761 -86.94263 34115 ft 416 kts 237°
2026-04-26 17:44 39.97310 -87.00319 34102 ft 415 kts 237°
2026-04-26 17:45 39.93863 -87.06359 34117 ft 414 kts 237°
2026-04-26 17:45 39.90444 -87.12337 34093 ft 414 kts 237°
2026-04-26 17:46 39.87005 -87.18339 34096 ft 413 kts 237°
2026-04-26 17:46 39.83564 -87.24332 34082 ft 413 kts 237°
2026-04-26 17:47 39.81259 -87.28341 34078 ft 413 kts 237°
2026-04-26 17:47 39.76662 -87.36320 34076 ft 414 kts 237°
2026-04-26 17:48 39.73206 -87.42305 34068 ft 414 kts 237°
2026-04-26 17:48 39.69747 -87.48285 34078 ft 414 kts 237°
2026-04-26 17:49 39.66281 -87.54266 34070 ft 414 kts 237°
2026-04-26 17:49 39.62817 -87.60232 34072 ft 414 kts 237°
2026-04-26 17:50 39.59350 -87.66193 34067 ft 414 kts 237°
2026-04-26 17:50 39.55886 -87.72137 34071 ft 413 kts 237°
2026-04-26 17:51 39.52443 -87.78037 34061 ft 413 kts 237°
2026-04-26 17:51 39.48895 -87.83948 34038 ft 415 kts 232°
2026-04-26 17:52 39.44961 -87.89367 34035 ft 416 kts 231°
2026-04-26 17:52 39.40962 -87.94767 34030 ft 415 kts 231°
2026-04-26 17:53 39.36974 -88.00174 34035 ft 415 kts 231°
2026-04-26 17:54 39.31019 -88.08275 34042 ft 414 kts 231°
2026-04-26 17:54 39.27051 -88.13670 34028 ft 414 kts 231°
2026-04-26 17:55 39.23083 -88.19055 34047 ft 414 kts 231°
2026-04-26 17:55 39.19144 -88.24393 34029 ft 413 kts 231°
2026-04-26 17:56 39.15177 -88.29758 34035 ft 413 kts 231°
2026-04-26 17:57 39.07241 -88.40465 34028 ft 412 kts 231°
2026-04-26 17:57 39.03942 -88.44904 34030 ft 412 kts 231°
2026-04-26 17:58 38.95368 -88.56410 34021 ft 412 kts 231°
2026-04-26 17:59 38.90084 -88.63481 34035 ft 411 kts 231°
2026-04-26 17:59 38.86100 -88.68802 34019 ft 411 kts 231°
2026-04-26 18:00 38.82172 -88.74037 34029 ft 411 kts 231°
2026-04-26 18:00 38.78207 -88.79315 34027 ft 411 kts 231°
2026-04-26 18:01 38.74265 -88.84552 34032 ft 410 kts 231°
2026-04-26 18:01 38.70307 -88.89802 34032 ft 410 kts 232°
2026-04-26 18:02 38.66985 -88.94201 34043 ft 410 kts 231°
2026-04-26 18:02 38.62377 -89.00293 34034 ft 409 kts 231°
2026-04-26 18:03 38.58423 -89.05510 34039 ft 408 kts 231°
2026-04-26 18:03 38.54474 -89.10712 34032 ft 408 kts 231°
2026-04-26 18:04 38.50524 -89.15908 34040 ft 407 kts 231°
2026-04-26 18:05 38.44610 -89.23668 34029 ft 405 kts 231°
2026-04-26 18:05 38.40683 -89.28812 34028 ft 404 kts 231°
2026-04-26 18:06 38.36787 -89.33905 34017 ft 403 kts 232°
2026-04-26 18:06 38.32875 -89.39012 34014 ft 402 kts 232°
2026-04-26 18:07 38.28968 -89.44104 34007 ft 401 kts 232°
2026-04-26 18:07 38.25073 -89.49172 34019 ft 400 kts 232°
2026-04-26 18:08 38.21180 -89.54229 33999 ft 399 kts 232°
2026-04-26 18:08 38.17290 -89.59274 34021 ft 398 kts 232°
2026-04-26 18:09 38.13411 -89.64297 34012 ft 398 kts 232°
2026-04-26 18:09 38.09530 -89.69315 34021 ft 398 kts 232°
2026-04-26 18:10 38.05669 -89.74298 34014 ft 398 kts 232°
2026-04-26 18:10 38.01786 -89.79302 34016 ft 398 kts 232°
2026-04-26 18:11 37.97896 -89.84307 33995 ft 398 kts 232°
2026-04-26 18:11 37.94004 -89.89305 34005 ft 398 kts 232°
2026-04-26 18:12 37.90113 -89.94296 33998 ft 398 kts 232°
2026-04-26 18:12 37.86243 -89.99251 33998 ft 398 kts 232°
2026-04-26 18:13 37.82318 -90.04269 33995 ft 398 kts 232°
2026-04-26 18:13 37.78422 -90.09242 34003 ft 398 kts 232°
2026-04-26 18:14 37.74540 -90.14190 34004 ft 398 kts 232°
2026-04-26 18:14 37.70638 -90.19157 34012 ft 398 kts 232°
2026-04-26 18:15 37.66843 -90.24198 33981 ft 393 kts 238°
2026-04-26 18:15 37.63796 -90.29851 33993 ft 389 kts 242°
2026-04-26 18:16 37.60821 -90.35480 33991 ft 388 kts 241°
2026-04-26 18:16 37.56309 -90.43948 34010 ft 387 kts 241°
2026-04-26 18:17 37.53292 -90.49576 34010 ft 387 kts 241°
2026-04-26 18:17 37.50275 -90.55192 34006 ft 386 kts 241°
2026-04-26 18:18 37.47260 -90.60794 34000 ft 386 kts 240°
2026-04-26 18:18 37.44244 -90.66389 33985 ft 386 kts 240°
2026-04-26 18:19 37.41244 -90.71944 33986 ft 386 kts 240°
2026-04-26 18:19 37.38222 -90.77531 33987 ft 386 kts 240°
2026-04-26 18:20 37.35194 -90.83120 33983 ft 387 kts 240°
2026-04-26 18:20 37.32671 -90.87769 33978 ft 388 kts 240°
2026-04-26 18:21 37.29112 -90.94316 33981 ft 388 kts 240°
2026-04-26 18:21 37.26061 -90.99917 33977 ft 389 kts 240°
2026-04-26 18:22 37.22998 -91.05534 33978 ft 390 kts 240°
2026-04-26 18:22 37.19927 -91.11153 33973 ft 391 kts 239°
2026-04-26 18:23 37.16848 -91.16779 33979 ft 392 kts 239°
2026-04-26 18:23 37.13773 -91.22389 33963 ft 393 kts 239°
2026-04-26 18:24 37.10671 -91.28037 33970 ft 393 kts 239°
2026-04-26 18:24 37.07559 -91.33693 33958 ft 394 kts 239°
2026-04-26 18:25 37.04441 -91.39352 33964 ft 395 kts 239°
2026-04-26 18:25 37.01317 -91.45012 33955 ft 396 kts 239°
2026-04-26 18:26 36.98204 -91.50642 33967 ft 396 kts 239°
2026-04-26 18:26 36.95059 -91.56321 33963 ft 397 kts 238°
2026-04-26 18:27 36.91907 -91.62002 33968 ft 398 kts 238°
2026-04-26 18:27 36.88752 -91.67680 33981 ft 398 kts 238°
2026-04-26 18:28 36.85588 -91.73365 33972 ft 399 kts 238°
2026-04-26 18:28 36.82420 -91.79046 33988 ft 399 kts 238°
2026-04-26 18:29 36.79247 -91.84727 33986 ft 399 kts 238°
2026-04-26 18:29 36.76064 -91.90416 33986 ft 399 kts 238°
2026-04-26 18:30 36.72882 -91.96096 33979 ft 400 kts 238°
2026-04-26 18:30 36.69712 -92.01742 33964 ft 400 kts 238°
2026-04-26 18:31 36.66517 -92.07425 33956 ft 400 kts 238°
2026-04-26 18:31 36.63317 -92.13107 33944 ft 400 kts 238°
2026-04-26 18:32 36.60112 -92.18788 33936 ft 400 kts 238°
2026-04-26 18:32 36.56907 -92.24460 33934 ft 400 kts 238°
2026-04-26 18:33 36.53720 -92.30090 33943 ft 400 kts 239°
2026-04-26 18:33 36.50515 -92.35742 33943 ft 399 kts 239°
2026-04-26 18:34 36.47316 -92.41376 33949 ft 399 kts 238°
2026-04-26 18:34 36.44119 -92.46996 33965 ft 398 kts 238°
2026-04-26 18:35 36.40918 -92.52614 33947 ft 397 kts 238°
2026-04-26 18:35 36.37745 -92.58174 33944 ft 397 kts 238°
2026-04-26 18:36 36.34551 -92.63761 33936 ft 397 kts 238°
2026-04-26 18:36 36.31355 -92.69343 33937 ft 396 kts 238°
2026-04-26 18:37 36.28156 -92.74922 33935 ft 397 kts 238°
2026-04-26 18:37 36.24954 -92.80496 33927 ft 397 kts 238°
2026-04-26 18:38 36.21744 -92.86074 33923 ft 398 kts 238°
2026-04-26 18:38 36.18525 -92.91661 33919 ft 399 kts 238°
2026-04-26 18:39 36.15296 -92.97254 33932 ft 399 kts 238°
2026-04-26 18:39 36.12082 -93.02813 33926 ft 400 kts 238°
2026-04-26 18:40 36.09363 -93.07510 33930 ft 401 kts 238°
2026-04-26 18:40 36.07549 -93.10637 33922 ft 396 kts 238°
2026-04-26 18:41 36.04361 -93.16124 33924 ft 391 kts 239°
2026-04-26 18:41 36.01205 -93.21555 33921 ft 392 kts 239°
2026-04-26 18:42 35.98014 -93.27039 33913 ft 394 kts 239°
2026-04-26 18:42 35.94809 -93.32536 33903 ft 395 kts 239°
2026-04-26 18:43 35.92113 -93.37151 33902 ft 397 kts 239°
2026-04-26 18:43 35.88878 -93.42682 33905 ft 398 kts 239°
2026-04-26 18:44 35.85631 -93.48223 33903 ft 398 kts 239°
2026-04-26 18:44 35.82404 -93.53722 33898 ft 399 kts 239°
2026-04-26 18:45 35.79148 -93.59262 33907 ft 398 kts 239°
2026-04-26 18:45 35.75897 -93.64784 33889 ft 398 kts 239°
2026-04-26 18:46 35.72649 -93.70292 33893 ft 397 kts 239°
2026-04-26 18:46 35.69402 -93.75792 33885 ft 396 kts 239°
2026-04-26 18:47 35.66172 -93.81251 33868 ft 396 kts 239°
2026-04-26 18:47 35.62936 -93.86716 33866 ft 395 kts 239°
2026-04-26 18:48 35.59696 -93.92176 33853 ft 395 kts 239°
2026-04-26 18:48 35.56453 -93.97633 33865 ft 395 kts 239°
2026-04-26 18:49 35.53230 -94.03050 33857 ft 395 kts 239°
2026-04-26 18:49 35.49989 -94.08487 33858 ft 395 kts 239°
2026-04-26 18:50 35.46742 -94.13927 33865 ft 395 kts 239°
2026-04-26 18:50 35.43493 -94.19363 33867 ft 395 kts 239°
2026-04-26 18:51 35.40240 -94.24795 33874 ft 395 kts 239°
2026-04-26 18:51 35.36508 -94.29814 33906 ft 402 kts 227°
2026-04-26 18:52 35.32301 -94.34328 33884 ft 404 kts 227°
2026-04-26 18:52 35.28075 -94.38860 33889 ft 404 kts 227°
2026-04-26 18:53 35.23857 -94.43410 33883 ft 403 kts 228°
2026-04-26 18:53 35.19654 -94.47955 33868 ft 403 kts 227°
2026-04-26 18:54 35.15444 -94.52503 33876 ft 403 kts 228°
2026-04-26 18:54 35.11249 -94.57030 33868 ft 402 kts 228°
2026-04-26 18:55 35.07057 -94.61546 33883 ft 401 kts 228°
2026-04-26 18:55 35.02898 -94.66020 33864 ft 400 kts 228°
2026-04-26 18:56 34.98711 -94.70518 33877 ft 399 kts 228°
2026-04-26 18:56 34.94541 -94.74992 33881 ft 398 kts 228°
2026-04-26 18:57 34.91078 -94.78703 33877 ft 398 kts 228°
2026-04-26 18:57 34.86247 -94.83874 33876 ft 398 kts 228°
2026-04-26 18:58 34.82138 -94.88379 33825 ft 393 kts 235°
2026-04-26 18:58 34.80612 -94.91060 33928 ft 381 kts 244°
2026-04-26 18:58 34.79212 -94.93806 33890 ft 383 kts 243°
2026-04-26 18:59 34.76344 -94.99307 33858 ft 385 kts 243°
2026-04-26 18:59 34.73470 -95.04756 33857 ft 385 kts 243°
2026-04-26 19:00 34.70568 -95.10241 33855 ft 385 kts 243°
2026-04-26 19:00 34.67667 -95.15717 33838 ft 385 kts 243°
2026-04-26 19:01 34.64769 -95.21179 33840 ft 384 kts 243°
2026-04-26 19:01 34.61889 -95.26603 33838 ft 384 kts 243°
2026-04-26 19:02 34.58991 -95.32051 33842 ft 384 kts 243°
2026-04-26 19:02 34.56555 -95.36626 33829 ft 384 kts 242°
2026-04-26 19:03 34.53180 -95.42953 33824 ft 384 kts 242°
2026-04-26 19:03 34.49802 -95.48024 33855 ft 393 kts 229°
2026-04-26 19:04 34.45685 -95.52415 33843 ft 394 kts 229°
2026-04-26 19:04 34.41607 -95.56803 33840 ft 393 kts 229°
2026-04-26 19:05 34.35493 -95.63429 33840 ft 391 kts 229°
2026-04-26 19:06 34.31438 -95.67826 33823 ft 391 kts 229°
2026-04-26 19:06 34.27389 -95.72211 33822 ft 390 kts 229°
2026-04-26 19:07 34.23343 -95.76586 33832 ft 390 kts 229°
2026-04-26 19:07 34.19297 -95.80951 33834 ft 389 kts 229°
2026-04-26 19:08 34.15240 -95.85288 33829 ft 389 kts 229°
2026-04-26 19:08 34.11208 -95.89585 33835 ft 389 kts 229°
2026-04-26 19:09 34.07145 -95.93915 33830 ft 389 kts 229°
2026-04-26 19:09 34.03086 -95.98237 33835 ft 389 kts 229°
2026-04-26 19:10 33.99026 -96.02555 33829 ft 390 kts 228°
2026-04-26 19:10 33.94959 -96.06876 33846 ft 389 kts 228°
2026-04-26 19:11 33.90892 -96.11190 33832 ft 390 kts 228°
2026-04-26 19:11 33.86841 -96.15494 33843 ft 390 kts 229°
2026-04-26 19:12 33.82781 -96.19807 33732 ft 388 kts 229°
2026-04-26 19:12 33.80777 -96.21930 33374 ft 378 kts 229°
2026-04-26 19:12 33.78836 -96.23981 33145 ft 367 kts 229°
2026-04-26 19:12 33.76935 -96.25994 32856 ft 362 kts 229°
2026-04-26 19:13 33.75050 -96.27995 32599 ft 360 kts 229°
2026-04-26 19:13 33.73177 -96.29983 32351 ft 359 kts 229°
2026-04-26 19:13 33.71303 -96.31970 32058 ft 359 kts 229°
2026-04-26 19:13 33.69411 -96.33978 31344 ft 366 kts 229°
2026-04-26 19:14 33.67500 -96.35998 30796 ft 364 kts 228°
2026-04-26 19:14 33.65600 -96.38001 30175 ft 364 kts 228°
2026-04-26 19:14 33.63698 -96.40006 29544 ft 363 kts 228°
2026-04-26 19:14 33.63057 -96.40682 29315 ft 362 kts 228°
2026-04-26 19:15 33.59921 -96.43986 28197 ft 360 kts 228°
2026-04-26 19:15 33.58035 -96.45972 27547 ft 359 kts 227°
2026-04-26 19:15 33.56166 -96.47940 26909 ft 357 kts 227°
2026-04-26 19:15 33.54319 -96.49885 26295 ft 356 kts 227°
2026-04-26 19:16 33.52459 -96.51842 25695 ft 355 kts 227°
2026-04-26 19:16 33.50601 -96.53795 25094 ft 355 kts 227°
2026-04-26 19:16 33.48745 -96.55744 24511 ft 354 kts 226°
2026-04-26 19:16 33.46956 -96.57746 23901 ft 350 kts 235°
2026-04-26 19:17 33.45717 -96.60220 23320 ft 342 kts 250°
2026-04-26 19:17 33.45053 -96.62921 22640 ft 337 kts 264°
2026-04-26 19:17 33.44935 -96.65701 22069 ft 332 kts 270°
2026-04-26 19:17 33.44944 -96.68459 21407 ft 331 kts 270°
2026-04-26 19:18 33.44978 -96.71207 20788 ft 328 kts 271°
2026-04-26 19:18 33.45010 -96.73895 20181 ft 326 kts 270°
2026-04-26 19:18 33.45034 -96.76597 19590 ft 323 kts 270°
2026-04-26 19:18 33.45050 -96.79280 19000 ft 321 kts 270°
2026-04-26 19:19 33.45060 -96.81944 18428 ft 318 kts 270°
2026-04-26 19:19 33.45067 -96.84584 17821 ft 316 kts 270°
2026-04-26 19:19 33.45072 -96.87205 17173 ft 314 kts 270°
2026-04-26 19:19 33.45075 -96.89816 16538 ft 312 kts 269°
2026-04-26 19:20 33.45077 -96.92404 15921 ft 310 kts 269°
2026-04-26 19:20 33.45078 -96.93275 15716 ft 309 kts 269°
2026-04-26 19:20 33.45079 -96.97538 14715 ft 307 kts 269°
2026-04-26 19:20 33.45080 -97.00087 14147 ft 305 kts 269°
2026-04-26 19:21 33.45080 -97.02626 13564 ft 304 kts 269°
2026-04-26 19:21 33.45079 -97.05158 12918 ft 303 kts 269°
2026-04-26 19:21 33.45078 -97.07655 12297 ft 301 kts 269°
2026-04-26 19:21 33.45045 -97.10147 11674 ft 297 kts 263°
2026-04-26 19:22 33.44525 -97.12512 11225 ft 289 kts 248°
2026-04-26 19:22 33.43737 -97.14633 11188 ft 269 kts 246°
2026-04-26 19:22 33.42899 -97.16619 10574 ft 271 kts 234°
2026-04-26 19:22 33.41471 -97.18116 10116 ft 273 kts 218°
2026-04-26 19:23 33.39896 -97.19371 9646 ft 272 kts 216°
2026-04-26 19:23 33.38315 -97.20594 9150 ft 270 kts 216°
2026-04-26 19:23 33.36741 -97.21812 8648 ft 268 kts 216°
2026-04-26 19:23 33.35182 -97.23024 8160 ft 267 kts 216°
2026-04-26 19:24 33.33635 -97.24234 7683 ft 265 kts 214°
2026-04-26 19:24 33.32096 -97.25442 7205 ft 264 kts 214°
2026-04-26 19:24 33.29370 -97.27585 6377 ft 262 kts 214°
2026-04-26 19:25 33.27854 -97.28779 5896 ft 259 kts 213°
2026-04-26 19:25 33.27344 -97.29181 5733 ft 259 kts 213°
2026-04-26 19:25 33.24855 -97.31142 4928 ft 256 kts 213°
2026-04-26 19:25 33.23873 -97.31915 4608 ft 256 kts 213°
2026-04-26 19:26 33.22395 -97.33079 4167 ft 252 kts 212°
2026-04-26 19:26 33.20971 -97.34200 4056 ft 237 kts 212°
2026-04-26 19:26 33.19633 -97.35240 4026 ft 223 kts 207°
2026-04-26 19:26 33.18194 -97.35673 4035 ft 207 kts 182°
2026-04-26 19:27 33.16794 -97.35533 3918 ft 200 kts 173°
2026-04-26 19:27 33.15406 -97.35233 3632 ft 201 kts 171°
2026-04-26 19:27 33.14033 -97.34937 3348 ft 196 kts 171°
2026-04-26 19:27 33.12722 -97.34663 3079 ft 186 kts 170°
2026-04-26 19:28 33.11497 -97.34411 2839 ft 170 kts 171°
2026-04-26 19:28 33.10380 -97.34181 2629 ft 157 kts 171°
2026-04-26 19:28 33.09336 -97.33966 2445 ft 150 kts 171°
2026-04-26 19:28 33.08339 -97.33761 2299 ft 145 kts 171°
2026-04-26 19:29 33.07329 -97.33554 2099 ft 147 kts 169°
2026-04-26 19:29 33.06330 -97.33347 1874 ft 143 kts 172°
2026-04-26 19:29 33.05368 -97.33149 1714 ft 139 kts 172°
2026-04-26 19:29 33.04420 -97.32957 1545 ft 138 kts 168°
2026-04-26 19:30 33.03478 -97.32759 1397 ft 140 kts 168°
2026-04-26 19:30 33.02514 -97.32561 1121 ft 142 kts 168°
2026-04-26 19:30 33.01560 -97.32351 1005 ft 136 kts 170°
2026-04-26 19:30 33.00934 -97.32223 887 ft 135 kts 169°
2026-04-26 19:31 32.99764 -97.31992 742 ft 124 kts 169°
2026-04-26 19:31 32.98968 -97.31831 702 ft 95 kts 170°
2026-04-26 19:31 32.98528 -97.31742 694 ft 33 kts 170°
2026-04-26 19:31 32.98301 -97.31695 684 ft 29 kts 170°
2026-04-26 19:32 32.98137 -97.31679 684 ft 19 kts 204°
2026-04-26 19:32 32.98107 -97.31741 685 ft 6 kts 261°
2026-04-26 19:32 32.98105 -97.31755 687 ft 0 kts 261°
2026-04-26 19:33 32.98104 -97.31763 687 ft 6 kts 261°
2026-04-26 19:33 32.98088 -97.31888 684 ft 14 kts 261°
2026-04-26 19:34 32.98065 -97.31970 679 ft 5 kts 218°
2026-04-26 19:34 32.98030 -97.31971 682 ft 6 kts 171°
2026-04-26 19:34 32.97992 -97.31963 679 ft 7 kts 170°
2026-04-26 19:34 32.97935 -97.31951 678 ft 9 kts 170°
2026-04-26 19:35 32.97869 -97.31937 680 ft 10 kts 170°
2026-04-26 19:35 32.97825 -97.31983 678 ft 2 kts 261°
2026-04-26 19:35 32.97823 -97.32000 678 ft 2 kts 263°
2026-04-26 19:35 32.97823 -97.32006 678 ft 0 kts 262°